Weather observations for the past three days for
Fosston, Fosston Municipal Airport
Imperial (Metric)
Date Time (cdt) Wind (mph) Vis. (mi.) Weather Sky Cond. Temperature (ºF) Relative Humidity Wind Chill (°F) Heat Index (°F) Pressure Precipitation (in)
Air Dwpt 6 hour altimeter (in) sea level (mb) 1 hr 3 hr 6 hr
Max. Min.
15 18:55 N 10 10.00 Partly Cloudy SCT033 SCT075 71.6 57.2 61% 29.83 0.0
15 18:35 N 12 10.00 Mostly Cloudy SCT035 BKN075 69.8 57.2 64% 29.83 0.0
15 18:15 NW 9 10.00 Mostly Cloudy SCT039 SCT060 BKN075 69.8 57.2 64% 29.83 0.0
15 17:55 NW 12 10.00 Partly Cloudy SCT038 SCT060 SCT075 71.6 57.2 61% 29.83 0.0
15 17:35 NW 12 G 18 10.00 Partly Cloudy SCT050 73.4 57.2 57% 29.83 0.0
15 17:15 NW 12 G 17 10.00 Fair CLR 73.4 55.4 53% 29.83 0.0
15 16:55 NW 9 10.00 Fair CLR 73.4 57.2 57% 29.83 0.0
15 16:35 NW 10 10.00 Fair CLR 73.4 57.2 57% 29.83 0.0
15 16:15 NW 8 10.00 Fair CLR 73.4 59 61% 29.83 0.0
15 15:55 NW 12 G 18 10.00 Partly Cloudy SCT038 73.4 57.2 57% 29.83 0.0
15 15:35 NW 12 G 17 10.00 Partly Cloudy SCT038 73.4 59 61% 29.83 0.0
15 15:15 NW 10 G 17 10.00 Partly Cloudy SCT042 SCT050 71.6 57.2 61% 29.82 0.0
15 14:55 NW 10 10.00 Partly Cloudy SCT042 73.4 57.2 57% 29.82 0.0
15 14:35 NW 13 10.00 Partly Cloudy SCT038 71.6 57.2 61% 29.81 0.0
15 14:15 N 10 10.00 Partly Cloudy SCT038 73.4 59 61% 29.81 0.0
15 13:55 NW 14 G 20 10.00 Fair CLR 73.4 59 61% 29.8 0.0
15 13:35 NW 13 G 16 10.00 Fair CLR 73.4 57.2 57% 29.8 0.0
15 13:15 NW 13 G 18 10.00 Partly Cloudy SCT033 73.4 60.8 65% 29.8 0.0
15 12:55 W 12 10.00 Partly Cloudy SCT033 73.4 59 61% 29.8 0.0
15 12:35 NW 10 10.00 NULL NULL 71.6 60.8 69% 29.8 0.0
15 12:15 NW 8 10.00 NULL NULL 71.6 60.8 69% 29.8 0.0
15 11:55 NW 5 10.00 NULL NULL 71.6 60.8 69% 29.81 0.0
15 11:35 N 5 10.00 Partly Cloudy SCT039 SCT045 SCT085 69.8 60.8 73% 29.81 0.0
15 11:15 N 3 10.00 Mostly Cloudy BKN039 BKN049 BKN085 68 59 73% 29.82 0.0
15 10:55 N 5 10.00 Overcast BKN039 OVC048 66.2 59 78% 29.82 0.0
15 10:35 N 12 10.00 Overcast SCT034 OVC044 66.2 57.2 73% 29.82 0.0
15 10:15 N 13 10.00 Overcast BKN048 OVC050 66.2 62.6 88% 29.83 0.0
15 09:55 N 9 10.00 Mostly Cloudy SCT033 BKN050 66.2 64.4 94% 29.82 0.0
15 09:35 N 7 10.00 Overcast SCT025 BKN033 OVC055 66.2 66.2 100% 29.82 0.0
15 09:15 N 10 10.00 Overcast SCT008 SCT014 OVC026 64.4 64.4 100% 29.83 0.0
15 08:55 NW 14 G 20 10.00 Mostly Cloudy SCT011 BKN080 BKN090 66.2 66.2 100% 29.83 0.0
15 08:35 NW 5 10.00 Mostly Cloudy SCT090 BKN100 66.2 66.2 100% 29.8 0.0
15 08:15 Calm 10.00 Mostly Cloudy BKN090 66.2 66.2 100% 29.79 0.0
15 07:55 Calm 10.00 Overcast BKN090 OVC110 66.2 66.2 100% 29.79 0.0
15 07:35 Calm 10.00 Mostly Cloudy BKN110 64.4 64.4 100% 29.78 0.0
15 07:15 SE 7 10.00 Fair CLR 64.4 64.4 100% 29.76 0.0
15 06:55 SE 5 10.00 Fair CLR 64.4 64.4 100% 29.76 0.0
15 06:35 SE 5 10.00 Partly Cloudy SCT110 64.4 64.4 100% 29.75 0.0
15 06:15 SE 7 10.00 Mostly Cloudy BKN110 64.4 64.4 100% 29.76 0.0
15 05:55 SE 5 10.00 Partly Cloudy SCT120 62.6 62.6 100% 29.78 0.0
15 05:35 Calm 10.00 Partly Cloudy SCT013 SCT023 64.4 64.4 100% 29.81 0.0
15 05:15 Calm 7.00 Thunderstorm Heavy Rain SCT015 BKN022 OVC026 64.4 64.4 100% 29.81 0.0
15 04:55 NW 9 10.00 Thunderstorm Rain SCT012 BKN018 OVC035 64.4 64.4 100% 29.87 0.0 0.01
15 04:35 W 6 7.00 Thunderstorm Heavy Rain SCT015 BKN037 OVC046 66.2 66.2 100% 29.86 0.0
15 04:15 SW 7 7.00 Thunderstorm Rain SCT018 BKN025 OVC048 66.2 66.2 100% 29.86 0.0 0.01
15 03:55 Calm 7.00 Light Rain SCT016 BKN037 OVC110 64.4 64.4 100% 29.84 0.0
15 03:35 N 5 10.00 Light Rain SCT110 64.4 64.4 100% 29.84 0.0
15 03:15 N 5 10.00 Fair CLR 66.2 64.4 94% 29.85 0.0
15 02:55 Calm 10.00 Fair CLR 64.4 64.4 100% 29.83 0.0
15 02:35 S 6 10.00 Fair CLR 66.2 60.8 83% 29.83 0.0
15 02:15 S 6 10.00 Fair CLR 66.2 62.6 88% 29.83 0.0
15 01:55 Calm 7.00 Fair CLR 64.4 64.4 100% 29.83 0.0
15 01:35 Calm 10.00 Fair CLR 64.4 64.4 100% 29.83 0.0
15 01:15 Calm 10.00 Fair CLR 64.4 64.4 100% 29.83 0.0
15 00:55 Calm 10.00 Fair CLR 66.2 66.2 100% 29.84 0.0
15 00:35 SE 3 10.00 Fair CLR 64.4 64.4 100% 29.85 0.0
15 00:15 Calm 10.00 Fair CLR 64.4 64.4 100% 29.86 0.0
14 23:55 Calm 10.00 Fair CLR 66.2 66.2 100% 29.86 0.0
14 23:35 S 3 10.00 Fair CLR 64.4 64.4 100% 29.87 0.0
14 23:15 Calm 10.00 Fair CLR 64.4 64.4 100% 29.88 0.0
14 22:55 Calm 10.00 Fair CLR 64.4 64.4 100% 29.88 0.0
14 22:35 Calm 10.00 Fair CLR 66.2 62.6 88% 29.87 0.0
14 22:15 Calm 10.00 Fair CLR 69.8 62.6 78% 29.87 0.0
14 21:55 S 5 10.00 Fair CLR 68 62.6 83% 29.87 0.0
14 21:35 Calm 10.00 Fair CLR 69.8 62.6 78% 29.87 0.0
14 21:15 Calm 10.00 Fair CLR 69.8 62.6 78% 29.88 0.0
14 20:55 S 3 10.00 Fair CLR 71.6 62.6 73% 29.88 0.0
14 20:35 S 3 10.00 Fair CLR 71.6 62.6 73% 29.89 0.0
14 20:15 Calm 10.00 Fair CLR 77 60.8 57% 79 29.9 0.0
14 19:55 Calm 10.00 Fair CLR 75.2 60.8 61% 77 29.9 0.0
14 19:35 Calm 10.00 Fair CLR 77 57.2 51% 79 29.9 0.0
14 19:15 Calm 10.00 Fair CLR 78.8 57.2 48% 80 29.91 0.0
14 18:55 NW 3 10.00 Fair CLR 78.8 57.2 48% 80 29.91 0.0
14 18:35 W 3 10.00 Fair CLR 78.8 55.4 45% 79 29.91 0.0
14 18:15 Calm 10.00 Fair CLR 80.6 57.2 45% 81 29.91 0.0
14 17:55 SW 3 10.00 Fair CLR 78.8 60.8 54% 80 29.91 0.0
14 17:35 NW 3 10.00 Fair CLR 80.6 57.2 45% 81 29.92 0.0
14 17:15 NW 3 10.00 Fair CLR 80.6 57.2 45% 81 29.92 0.0
14 16:55 NW 3 10.00 Fair CLR 80.6 57.2 45% 81 29.93 0.0
14 16:35 NW 3 10.00 Fair CLR 80.6 57.2 45% 81 29.94 0.0
14 16:15 Calm 10.00 Fair CLR 80.6 57.2 45% 81 29.94 0.0
14 15:55 NW 3 10.00 Fair CLR 78.8 60.8 54% 80 29.94 0.0
14 15:35 N 6 10.00 Fair CLR 78.8 60.8 54% 80 29.94 0.0
14 15:15 NE 3 10.00 Fair CLR 78.8 60.8 54% 80 29.94 0.0
14 14:55 Calm 10.00 Fair CLR 78.8 60.8 54% 80 29.94 0.0
14 14:35 Calm 10.00 Fair CLR 78.8 60.8 54% 80 29.94 0.0
14 14:15 N 5 10.00 Fair CLR 78.8 60.8 54% 80 29.94 0.0
14 13:55 NE 5 10.00 Fair CLR 78.8 60.8 54% 80 29.94 0.0
14 13:35 N 6 10.00 Fair CLR 77 62.6 61% 79 29.94 0.0
14 13:15 N 3 10.00 Fair CLR 77 60.8 57% 79 29.94 0.0
14 12:55 N 6 10.00 Fair CLR 77 60.8 57% 79 29.94 0.0
14 12:35 NW 7 10.00 Fair CLR 77 62.6 61% 79 29.95 0.0
14 12:15 N 6 10.00 Fair CLR 75.2 60.8 61% 77 29.95 0.0
14 11:55 N 8 10.00 Fair CLR 75.2 62.6 65% 77 29.95 0.0
14 11:35 N 7 10.00 Fair CLR 75.2 62.6 65% 77 29.95 0.0
14 11:15 NE 6 10.00 Fair CLR 75.2 62.6 65% 77 29.94 0.0
14 10:55 N 7 10.00 NULL NULL 73.4 64.4 74% 29.94 0.0
14 10:35 N 7 10.00 NULL NULL 73.4 64.4 74% 29.94 0.0
14 10:15 N 5 10.00 Fair CLR 73.4 66.2 78% 29.94 0.0
14 09:55 N 5 10.00 Fair CLR 71.6 66.2 83% 29.94 0.0
14 09:35 NE 3 10.00 Fair CLR 71.6 66.2 83% 29.94 0.0
14 09:15 NE 3 10.00 Fair CLR 69.8 66.2 88% 29.95 0.0
14 08:55 N 6 10.00 Fair CLR 69.8 66.2 88% 29.95 0.0
14 08:35 N 6 10.00 Fair CLR 68 66.2 94% 29.95 0.0
14 08:15 N 3 10.00 Fair CLR 66.2 66.2 100% 29.94 0.0
14 07:55 N 3 10.00 Fair CLR 66.2 66.2 100% 29.94 0.0
14 07:35 N 6 7.00 Fair CLR 66.2 66.2 100% 29.93 0.0
14 07:15 N 3 5.00 Fog/Mist CLR 64.4 64.4 100% 29.93 0.0
14 06:55 N 5 5.00 Fog/Mist CLR 64.4 64.4 100% 29.93 0.0
14 06:35 N 5 5.00 Fog/Mist CLR 62.6 62.6 100% 29.93 0.0
14 06:15 NW 5 5.00 Fog/Mist CLR 62.6 62.6 100% 29.92 0.0
14 05:55 NW 5 5.00 Fog/Mist SCT001 62.6 62.6 100% 29.91 0.0
14 05:35 Calm 2.00 Fog/Mist CLR 62.6 62.6 100% 29.89 0.0
14 05:15 Calm 5.00 Fog/Mist CLR 62.6 62.6 100% 29.9 0.0
14 04:55 NW 3 10.00 Fair CLR 62.6 62.6 100% 29.9 0.0
14 04:35 Calm 10.00 Fair CLR 64.4 64.4 100% 29.9 0.0
14 04:15 NW 3 10.00 Fair CLR 62.6 62.6 100% 29.9 0.0
14 03:55 Calm 10.00 Fair CLR 64.4 64.4 100% 29.89 0.0
14 03:35 Calm 10.00 Fair CLR 62.6 62.6 100% 29.89 0.0
14 03:15 Calm 7.00 Fair CLR 60.8 60.8 100% 29.89 0.0
14 02:55 Calm 10.00 Fair CLR 62.6 62.6 100% 29.89 0.0
14 02:35 W 3 10.00 Fair CLR 62.6 62.6 100% 29.89 0.0
14 02:15 Calm 7.00 Fair CLR 62.6 62.6 100% 29.89 0.0
14 01:55 Calm 10.00 Fair CLR 64.4 64.4 100% 29.88 0.0
14 01:35 Calm 10.00 Fair CLR 64.4 64.4 100% 29.9 0.0
14 01:15 Calm 10.00 Fair CLR 62.6 62.6 100% 29.9 0.0
14 00:55 Calm 10.00 Fair CLR 62.6 62.6 100% 29.91 0.0
14 00:35 Calm 10.00 Fair CLR 62.6 62.6 100% 29.92 0.0
14 00:15 S 3 10.00 Fair CLR 62.6 62.6 100% 29.91 0.0
13 23:55 Calm 10.00 Fair CLR 62.6 62.6 100% 29.9 0.0
13 23:35 Calm 10.00 Fair CLR 62.6 62.6 100% 29.91 0.0
13 23:15 Calm 10.00 Fair CLR 64.4 64.4 100% 29.91 0.0
13 22:55 Calm 10.00 Fair CLR 62.6 62.6 100% 29.89 0.0
13 22:35 Calm 10.00 Fair CLR 64.4 64.4 100% 29.9 0.0
13 22:15 Calm 10.00 Fair CLR 64.4 64.4 100% 29.9 0.0
13 21:55 E 3 10.00 Fair CLR 64.4 64.4 100% 29.9 0.0
13 21:35 Calm 10.00 Fair CLR 64.4 64.4 100% 29.91 0.0
13 21:15 Calm 10.00 Fair CLR 64.4 64.4 100% 29.91 0.0
13 20:55 W 3 10.00 Fair CLR 64.4 64.4 100% 29.91 0.0
13 20:35 Calm 10.00 Fair CLR 62.6 62.6 100% 29.91 0.0
13 20:15 W 7 10.00 Fair CLR 64.4 64.4 100% 29.92 0.0
13 19:55 SW 10 10.00 Thunderstorm Light Rain CLR 62.6 62.6 100% 29.92 0.0
13 19:35 SW 17 G 25 10.00 Thunderstorm Light Rain SCT011 62.6 62.6 100% 29.92 0.0
13 19:15 S 14 G 24 10.00 Thunderstorm Heavy Rain SCT005 BKN011 BKN016 62.6 62.6 100% 29.91 0.0
13 18:55 S 14 G 20 2.00 Thunderstorm Heavy Rain NULL 66.2 66.2 100% 29.92 0.0 0.01
13 17:55 W 5 5.00 Thunderstorm Rain in Vicinity SCT016 SCT021 78.8 69.8 74% 81 29.9 0.0 0.01
13 17:35 SW 8 10.00 Thunderstorm Light Rain CLR 80.6 66.2 62% 83 29.9 0.0
13 17:15 SW 12 10.00 Partly Cloudy SCT070 84.2 66.2 55% 87 29.91 0.0
13 16:55 SW 12 10.00 Partly Cloudy SCT070 84.2 68 58% 87 29.91 0.0
13 16:35 SW 13 10.00 Fair CLR 84.2 68 58% 87 29.9 0.0
13 16:15 S 12 G 18 10.00 Fair CLR 84.2 66.2 55% 87 29.89 0.0
13 15:55 S 12 10.00 Fair CLR 84.2 66.2 55% 87 29.9 0.0
13 15:35 SW 10 10.00 Fair CLR 84.2 64.4 51% 86 29.9 0.0
13 15:15 S 7 10.00 Fair CLR 84.2 64.4 51% 86 29.91 0.0
13 14:55 SW 7 10.00 Fair CLR 84.2 64.4 51% 86 29.92 0.0
13 14:35 SW 7 10.00 Fair CLR 82.4 64.4 55% 84 29.92 0.0
13 14:15 SW 12 10.00 Fair CLR 84.2 66.2 55% 87 29.92 0.0
13 13:55 SW 9 10.00 Fair CLR 82.4 64.4 55% 84 29.92 0.0
13 13:35 SW 8 10.00 Fair CLR 82.4 66.2 58% 85 29.93 0.0
13 13:15 S 12 10.00 Fair CLR 82.4 64.4 55% 84 29.93 0.0
13 12:55 SW 13 10.00 Fair CLR 80.6 64.4 58% 82 29.95 0.0
13 12:35 SW 10 G 17 10.00 Fair CLR 80.6 64.4 58% 82 29.95 0.0
13 12:15 SW 14 10.00 Fair CLR 80.6 62.6 54% 82 29.95 0.0
13 11:55 SW 9 10.00 Fair CLR 80.6 64.4 58% 82 29.95 0.0
13 11:35 SW 12 10.00 Fair CLR 78.8 62.6 58% 80 29.94 0.0
13 11:15 SW 10 10.00 Fair CLR 80.6 64.4 58% 82 29.93 0.0
13 10:55 SW 9 10.00 Fair CLR 80.6 62.6 54% 82 29.93 0.0
13 10:35 SW 10 10.00 Fair CLR 78.8 64.4 61% 81 29.93 0.0
13 10:15 SW 9 10.00 Fair CLR 78.8 64.4 61% 81 29.93 0.0
13 09:55 SW 8 10.00 Fair CLR 77 66.2 69% 79 29.94 0.0
13 09:35 SW 10 10.00 Fair CLR 75.2 66.2 74% 77 29.95 0.0
13 09:15 SW 9 10.00 Fair CLR 75.2 66.2 74% 77 29.96 0.0
13 08:55 SW 7 10.00 Partly Cloudy SCT090 73.4 66.2 78% 29.97 0.0
13 08:35 Calm 10.00 Partly Cloudy SCT090 SCT110 71.6 66.2 83% 29.98 0.0
13 08:15 NW 13 G 17 10.00 Mostly Cloudy SCT090 BKN110 71.6 66.2 83% 29.99 0.0
13 07:55 Calm 10.00 Partly Cloudy SCT110 69.8 64.4 83% 29.95 0.0
13 07:35 Calm 10.00 Fair CLR 71.6 64.4 78% 29.94 0.0
13 07:15 SE 3 10.00 Fair CLR 71.6 64.4 78% 29.92 0.0
13 06:55 Calm 10.00 Fair CLR 71.6 64.4 78% 29.93 0.0
13 06:35 S 6 10.00 Fair CLR 69.8 64.4 83% 29.92 0.0
13 06:15 S 5 10.00 Fair CLR 69.8 64.4 83% 29.91 0.0
13 05:55 E 3 10.00 Fair CLR 69.8 64.4 83% 29.9 0.0
13 05:35 SE 5 10.00 Fair CLR 69.8 64.4 83% 29.9 0.0
13 05:15 S 5 10.00 Fair CLR 69.8 64.4 83% 29.9 0.0
13 04:55 S 6 10.00 Fair CLR 69.8 64.4 83% 29.9 0.0
13 04:35 S 7 10.00 Fair CLR 69.8 64.4 83% 29.9 0.0
13 04:15 S 8 10.00 Fair CLR 69.8 64.4 83% 29.9 0.0
13 03:55 S 10 10.00 Fair CLR 69.8 64.4 83% 29.91 0.0
13 03:35 S 8 10.00 Fair CLR 69.8 64.4 83% 29.92 0.0
13 03:15 S 8 10.00 Partly Cloudy SCT040 SCT050 SCT065 71.6 64.4 78% 29.92 0.0
13 02:55 S 9 10.00 Thunderstorm in Vicinity SCT055 69.8 62.6 78% 29.93 0.0
13 02:35 S 7 10.00 Fair CLR 69.8 62.6 78% 29.94 0.0
13 02:15 S 7 10.00 Partly Cloudy SCT041 SCT070 71.6 62.6 73% 29.94 0.0
13 01:55 S 6 10.00 Mostly Cloudy SCT041 SCT050 BKN060 71.6 62.6 73% 29.95 0.0
13 01:35 S 7 10.00 Mostly Cloudy BKN045 71.6 62.6 73% 29.96 0.0
13 01:15 S 6 10.00 Partly Cloudy SCT045 69.8 62.6 78% 29.96 0.0
13 00:55 S 8 10.00 Fair CLR 71.6 62.6 73% 29.95 0.0
13 00:35 S 6 10.00 Fair CLR 71.6 62.6 73% 29.96 0.0
13 00:15 S 6 10.00 Fair CLR 71.6 62.6 73% 29.97 0.0
12 23:55 S 7 10.00 Fair CLR 71.6 62.6 73% 29.97 0.0
12 23:35 S 7 10.00 Fair CLR 71.6 62.6 73% 29.97 0.0
12 23:15 S 6 10.00 Fair CLR 71.6 62.6 73% 29.97 0.0
12 22:55 S 7 10.00 Fair CLR 73.4 62.6 69% 29.97 0.0
12 22:35 S 8 10.00 Fair CLR 71.6 62.6 73% 29.97 0.0
12 22:15 S 8 10.00 Fair CLR 73.4 62.6 69% 29.97 0.0
12 21:55 S 7 10.00 Fair CLR 73.4 62.6 69% 29.96 0.0
12 21:35 S 8 10.00 Fair CLR 73.4 62.6 69% 29.96 0.0
12 21:15 S 7 10.00 Fair CLR 75.2 62.6 65% 77 29.97 0.0
12 20:55 S 8 10.00 Fair CLR 75.2 62.6 65% 77 29.97 0.0
12 20:35 S 7 10.00 Fair CLR 75.2 62.6 65% 77 29.97 0.0
12 20:15 S 7 10.00 Fair CLR 77 62.6 61% 79 29.97 0.0
12 19:55 S 7 10.00 Fair CLR 77 64.4 65% 79 29.97 0.0
12 19:35 S 8 10.00 Fair CLR 78.8 64.4 61% 81 29.97 0.0
12 19:15 S 8 10.00 Fair CLR 78.8 64.4 61% 81 29.97 0.0
Date Time (cdt) Wind (mph) Vis. (mi.) Weather Sky Cond. Air Dwpt Max. Min. Relative Humidity Wind Chill (°F) Heat Index (°F) altimeter (in) sea level (mb) 1 hr 3 hr 6 hr
6 hour
Temperature (ºF) Pressure Precipitation (in)